Location: Laan Hart van Zuid
(52.2563°N, 6.7904°E)
Time: 14:36:01
(UTC+02:00)

BlueWalker 3 - Pass Details

Date: 27 April 2024
Orbit: 482 x 494 km, 53.2° (Epoch: 20 May)

Event Time Altitude Azimuth Distance (km) Brightness Sun altitude
Rises 00:10:19 0° 288° (WNW) 2,583 6.1 -21.6°
Reaches altitude 10° 00:12:33 10° 281° (W) 1,700 5.0 -21.7°
Enters shadow 00:15:08 33° 251° (WSW) 847 3.0 -21.9°
